Hourly Weather Aliganj

Today, 4 December, Friday

Time Temperature Precipitation Wind Pressure Humidity
00:00 +17°C° 0 mm 0 mps 745 mmHg 30%
01:00 +17°C° 0 mm 0 mps 745 mmHg 31%
02:00 +17°C° 0 mm 0 mps 744 mmHg 32%
03:00 +16°C° 0 mm 0 mps 744 mmHg 32%
04:00 +16°C° 0 mm 0 mps 744 mmHg 33%
05:00 +15°C° 0 mm 0 mps 745 mmHg 36%
06:00 +17°C° 0 mm 0 mps 745 mmHg 35%
07:00 +18°C° 0 mm 0 mps 745 mmHg 33%
08:00 +19°C° 0 mm 0 mps 746 mmHg 32%
09:00 +21°C° 0 mm 0 mps 746 mmHg 29%
10:00 +25°C° 0 mm 1 mps 746 mmHg 25%
11:00 +27°C° 0 mm 1 mps 746 mmHg 22%
12:00 +28°C° 0 mm 1 mps 745 mmHg 20%
13:00 +29°C° 0 mm 1 mps 745 mmHg 19%
14:00 +29°C° 0 mm 1 mps 744 mmHg 18%
15:00 +28°C° 0 mm 1 mps 744 mmHg 20%
16:00 +26°C° 0 mm 1 mps 743 mmHg 22%
17:00 +22°C° 0 mm 0 mps 743 mmHg 25%
18:00 +22°C° 0 mm 0 mps 743 mmHg 26%
19:00 +23°C° 0 mm 1 mps 744 mmHg 27%
20:00 +22°C° 0 mm 1 mps 744 mmHg 28%
21:00 +22°C° 0 mm 1 mps 744 mmHg 29%
22:00 +21°C° 0 mm 1 mps 744 mmHg 30%
23:00 +21°C° 0 mm 1 mps 744 mmHg 31%

Tomorrow, 5 December, Saturday

Time Temperature Precipitation Wind Pressure Humidity
00:00 +20°C° 0 mm 1 mps 744 mmHg 32%
01:00 +20°C° 0 mm 1 mps 744 mmHg 33%
02:00 +19°C° 0 mm 1 mps 744 mmHg 34%
03:00 +19°C° 0 mm 1 mps 744 mmHg 35%
04:00 +19°C° 0 mm 1 mps 744 mmHg 36%
05:00 +18°C° 0 mm 1 mps 743 mmHg 37%
06:00 +19°C° 0 mm 1 mps 744 mmHg 37%
07:00 +19°C° 0 mm 2 mps 745 mmHg 36%
08:00 +20°C° 0 mm 2 mps 746 mmHg 36%
09:00 +23°C° 0 mm 2 mps 746 mmHg 32%
10:00 +25°C° 0 mm 2 mps 746 mmHg 29%
11:00 +28°C° 0 mm 2 mps 746 mmHg 26%
12:00 +28°C° 0 mm 2 mps 745 mmHg 24%
13:00 +29°C° 0 mm 2 mps 745 mmHg 23%
14:00 +30°C° 0 mm 1 mps 744 mmHg 21%
15:00 +28°C° 0 mm 1 mps 744 mmHg 24%
16:00 +27°C° 0 mm 1 mps 744 mmHg 26%
17:00 +25°C° 0 mm 1 mps 744 mmHg 29%
18:00 +24°C° 0 mm 1 mps 744 mmHg 31%
19:00 +23°C° 0 mm 1 mps 745 mmHg 33%
20:00 +23°C° 0 mm 2 mps 745 mmHg 35%
21:00 +22°C° 0 mm 1 mps 745 mmHg 36%
22:00 +22°C° 0 mm 1 mps 745 mmHg 37%
23:00 +21°C° 0 mm 1 mps 745 mmHg 38%

Day after tomorrow, 6 December, Sunday

Time Temperature Precipitation Wind Pressure Humidity
00:00 +21°C° 0 mm 1 mps 745 mmHg 40%
01:00 +20°C° 0 mm 1 mps 745 mmHg 41%
02:00 +20°C° 0 mm 1 mps 745 mmHg 42%
03:00 +19°C° 0 mm 1 mps 745 mmHg 43%
04:00 +19°C° 0 mm 1 mps 745 mmHg 44%
05:00 +19°C° 0 mm 1 mps 745 mmHg 44%
06:00 +20°C° 0 mm 1 mps 746 mmHg 43%
07:00 +20°C° 0 mm 1 mps 747 mmHg 42%
08:00 +20°C° 0 mm 2 mps 748 mmHg 40%
09:00 +24°C° 0 mm 2 mps 748 mmHg 36%
10:00 +26°C° 0 mm 2 mps 748 mmHg 31%
11:00 +28°C° 0 mm 2 mps 748 mmHg 27%
12:00 +29°C° 0 mm 1 mps 747 mmHg 25%
13:00 +30°C° 0 mm 1 mps 746 mmHg 23%
14:00 +31°C° 0 mm 1 mps 746 mmHg 21%
15:00 +29°C° 0 mm 1 mps 745 mmHg 24%
16:00 +27°C° 0 mm 1 mps 745 mmHg 26%
17:00 +26°C° 0 mm 1 mps 745 mmHg 29%
18:00 +25°C° 0 mm 1 mps 746 mmHg 30%
19:00 +24°C° 0 mm 1 mps 746 mmHg 31%
20:00 +23°C° 0 mm 1 mps 746 mmHg 33%
21:00 +23°C° 0 mm 1 mps 746 mmHg 34%
22:00 +22°C° 0 mm 1 mps 746 mmHg 35%
23:00 +22°C° 0 mm 1 mps 746 mmHg 36%

7 December, Monday

Time Temperature Precipitation Wind Pressure Humidity
00:00 +20°C° 0 mm 2 mps 746 mmHg 37%
01:00 +19°C° 0 mm 2 mps 746 mmHg 39%
02:00 +19°C° 0 mm 2 mps 746 mmHg 41%
03:00 +18°C° 0 mm 2 mps 746 mmHg 42%
04:00 +18°C° 0 mm 2 mps 746 mmHg 44%
05:00 +18°C° 0 mm 1 mps 746 mmHg 46%
06:00 +19°C° 0 mm 1 mps 747 mmHg 44%
07:00 +20°C° 0 mm 1 mps 747 mmHg 43%
08:00 +21°C° 0 mm 1 mps 748 mmHg 41%
09:00 +23°C° 0 mm 2 mps 748 mmHg 36%
10:00 +25°C° 0 mm 2 mps 748 mmHg 32%
11:00 +27°C° 0 mm 2 mps 748 mmHg 27%
12:00 +28°C° 0 mm 3 mps 748 mmHg 24%
13:00 +29°C° 0 mm 3 mps 747 mmHg 21%
14:00 +30°C° 0 mm 3 mps 747 mmHg 19%
15:00 +28°C° 0 mm 3 mps 746 mmHg 21%
16:00 +26°C° 0 mm 2 mps 746 mmHg 24%
17:00 +25°C° 0 mm 2 mps 746 mmHg 26%
18:00 +24°C° 0 mm 2 mps 746 mmHg 27%
19:00 +23°C° 0 mm 2 mps 747 mmHg 29%
20:00 +21°C° 0 mm 2 mps 747 mmHg 30%
21:00 +21°C° 0 mm 2 mps 748 mmHg 30%
22:00 +20°C° 0 mm 2 mps 748 mmHg 31%
23:00 +20°C° 0 mm 2 mps 748 mmHg 31%

8 December, Tuesday

Time Temperature Precipitation Wind Pressure Humidity
00:00 +19°C° 0 mm 2 mps 748 mmHg 31%
01:00 +19°C° 0 mm 2 mps 747 mmHg 32%
02:00 +18°C° 0 mm 2 mps 747 mmHg 32%
03:00 +18°C° 0 mm 2 mps 747 mmHg 33%
04:00 +18°C° 0 mm 1 mps 747 mmHg 34%
05:00 +18°C° 0 mm 1 mps 747 mmHg 35%
06:00 +19°C° 0 mm 1 mps 748 mmHg 34%
07:00 +20°C° 0 mm 1 mps 748 mmHg 33%
08:00 +21°C° 0 mm 1 mps 749 mmHg 32%
09:00 +23°C° 0 mm 2 mps 749 mmHg 28%
10:00 +25°C° 0 mm 2 mps 749 mmHg 24%
11:00 +27°C° 0 mm 3 mps 748 mmHg 20%
12:00 +28°C° 0 mm 3 mps 747 mmHg 19%
13:00 +29°C° 0 mm 3 mps 747 mmHg 18%
14:00 +30°C° 0 mm 4 mps 746 mmHg 18%
15:00 +29°C° 0 mm 3 mps 746 mmHg 20%
16:00 +27°C° 0 mm 3 mps 745 mmHg 23%
17:00 +25°C° 0 mm 2 mps 745 mmHg 26%
18:00 +24°C° 0 mm 2 mps 746 mmHg 27%
19:00 +23°C° 0 mm 2 mps 746 mmHg 29%
20:00 +21°C° 0 mm 2 mps 746 mmHg 30%
21:00 +21°C° 0 mm 2 mps 746 mmHg 30%
22:00 +20°C° 0 mm 2 mps 746 mmHg 31%
23:00 +20°C° 0 mm 2 mps 746 mmHg 31%

9 December, Wednesday

Time Temperature Precipitation Wind Pressure Humidity
00:00 +20°C° 0 mm 2 mps 746 mmHg 32%
01:00 +19°C° 0 mm 2 mps 746 mmHg 33%
02:00 +19°C° 0 mm 2 mps 745 mmHg 33%
03:00 +18°C° 0 mm 2 mps 745 mmHg 35%
04:00 +18°C° 0 mm 2 mps 745 mmHg 36%
05:00 +17°C° 0 mm 2 mps 745 mmHg 37%
06:00 +18°C° 0 mm 2 mps 746 mmHg 36%
07:00 +19°C° 0 mm 2 mps 746 mmHg 35%
08:00 +20°C° 0 mm 2 mps 747 mmHg 34%
09:00 +22°C° 0 mm 3 mps 747 mmHg 30%
10:00 +26°C° 0 mm 3 mps 747 mmHg 26%
11:00 +28°C° 0 mm 4 mps 746 mmHg 22%
12:00 +29°C° 0 mm 4 mps 746 mmHg 21%
13:00 +30°C° 0 mm 4 mps 745 mmHg 20%
14:00 +32°C° 0 mm 4 mps 744 mmHg 19%
15:00 +29°C° 0 mm 4 mps 744 mmHg 22%
16:00 +27°C° 0 mm 3 mps 744 mmHg 25%
17:00 +26°C° 0 mm 2 mps 743 mmHg 27%
18:00 +25°C° 0 mm 2 mps 744 mmHg 29%
19:00 +24°C° 0 mm 2 mps 744 mmHg 30%
20:00 +23°C° 0 mm 2 mps 744 mmHg 31%
21:00 +21°C° 0 mm 2 mps 744 mmHg 32%
22:00 +21°C° 0 mm 2 mps 744 mmHg 32%
23:00 +21°C° 0 mm 2 mps 744 mmHg 32%
Show more